Weather History for KOXR - August, 2014

Change the Weather History Date:

Sunday, August 10, 2014

  Actual Average Record
Temperature  
Mean Temperature 68 °F -  
Max Temperature 73 °F 75 °F 90 °F (1971)
Min Temperature 63 °F 60 °F 33 °F (1996)
Cooling Degree Days 2    
Growing Degree Days 18 (Base 50)    
Moisture  
Dew Point 61 °F    
Average Humidity 84    
Maximum Humidity 90    
Minimum Humidity 71    
Precipitation  
Precipitation 0.00 in - - ()
Sea Level Pressure  
Sea Level Pressure 29.95 in    
Wind  
Wind Speed 5 mph (West)    
Max Wind Speed 12 mph    
Max Gust Speed -    
Visibility 8 miles    
Events      
Averages and records for this station are not official NWS values.
T = Trace of Precipitation, MM = Missing Value Source: NWS Daily Summary

Daily Weather History Graph

Daily Weather History Graph

Search for Another Location

Airport or City:

Trip Planner

Search our weather history database for the weather conditions in past years. The results will help you decide how hot, cold, wet, or windy it might be!

Date:

Astronomy

Aug. 10, 2014 Rise Set
Actual Time 6:14 AM PDT 7:49 PM PDT
Civil Twilight 5:47 AM PDT 8:16 PM PDT
Nautical Twilight 5:15 AM PDT 8:48 PM PDT
Astronomical Twilight 4:41 AM PDT 9:21 PM PDT
Moon 7:43 PM PDT (8/10) 6:10 AM PDT (8/10)
Length of Visible Light 14h 28m
Length of Day
13h 34m
Full, 100% of the Moon is Illuminated
Aug 10
Full
Aug 17
Last Quarter
Aug 25
New
Sep 2
First Quarter
Sep 8
Full

Hourly Weather History & Observations

Time (PDT) Temp. Dew Point Humidity Pressure Visibility Wind Dir Wind Speed Gust Speed Precip Events Conditions
12:51 AM 64.0 °F 60.1 °F 87% 29.97 in 7.0 mi ESE 3.5 mph - N/A   Overcast
1:51 AM 63.0 °F 60.1 °F 90% 29.97 in 6.0 mi SSE 4.6 mph - N/A   Overcast
2:51 AM 63.0 °F 60.1 °F 90% 29.95 in 6.0 mi South 4.6 mph - N/A   Overcast
3:51 AM 64.0 °F 61.0 °F 90% 29.95 in 7.0 mi SSE 3.5 mph - N/A   Overcast
4:51 AM 64.0 °F 61.0 °F 90% 29.95 in 6.0 mi Calm Calm - N/A   Overcast
5:51 AM 64.0 °F 61.0 °F 90% 29.95 in 6.0 mi Calm Calm - N/A   Overcast
7:51 AM 64.9 °F 61.0 °F 87% 29.98 in 5.0 mi Calm Calm - N/A   Overcast
8:51 AM 64.9 °F 61.0 °F 87% 29.99 in 4.0 mi Calm Calm - N/A   Overcast
9:51 AM 66.9 °F 61.0 °F 81% 30.00 in 5.0 mi NW 4.6 mph - N/A   Haze
10:51 AM 69.1 °F 62.1 °F 78% 30.00 in 7.0 mi West 5.8 mph - N/A   Overcast
11:51 AM 72.0 °F 62.1 °F 71% 30.00 in 9.0 mi West 8.1 mph - N/A   Mostly Cloudy
11:55 AM 71.6 °F 62.6 °F 73% 30.00 in 10.0 mi West 6.9 mph - N/A   Scattered Clouds
12:51 PM 71.1 °F 62.1 °F 73% 29.99 in 10.0 mi West 9.2 mph - N/A   Mostly Cloudy
2:51 PM 70.0 °F 61.0 °F 73% 29.97 in 10.0 mi West 10.4 mph - N/A   Mostly Cloudy
2:59 PM 69.8 °F 60.8 °F 73% 29.96 in 10.0 mi West 11.5 mph - N/A   Overcast
3:51 PM 69.1 °F 61.0 °F 75% 29.95 in 10.0 mi West 10.4 mph - N/A   Mostly Cloudy
5:51 PM 66.0 °F 61.0 °F 84% 29.92 in 8.0 mi WNW 10.4 mph - N/A   Overcast
6:51 PM 66.0 °F 61.0 °F 84% 29.91 in 10.0 mi WNW 10.4 mph - N/A   Overcast
7:16 PM 64.4 °F 60.8 °F 88% 29.91 in 10.0 mi West 11.5 mph - N/A   Scattered Clouds
7:24 PM 64.4 °F 60.8 °F 88% 29.91 in 10.0 mi West 11.5 mph - N/A   Mostly Cloudy
7:31 PM 64.4 °F 60.8 °F 88% 29.91 in 10.0 mi WNW 10.4 mph - N/A   Scattered Clouds
7:51 PM 64.0 °F 60.1 °F 87% 29.91 in 10.0 mi West 9.2 mph - N/A   Scattered Clouds
9:51 PM 63.0 °F 60.1 °F 90% 29.93 in 9.0 mi Calm Calm - N/A   Clear
10:51 PM 63.0 °F 60.1 °F 90% 29.93 in 9.0 mi Calm Calm - N/A   Clear
11:51 PM 64.0 °F 60.1 °F 87% 29.94 in 9.0 mi Calm Calm - N/A   Clear